GW2646 Weather Reports


Display with metric or nautical units.
time (UTC)temp
F
wind
direction
speed
MPH
gust
MPH
rain 1hr
in
rain 24hr
in
rain mn
in
humidity
%
barometer
mb
20260831070544 53 0 0.0 0.0 0.00 0.00 0.00 92 1016.7
20260831070138 54 0 0.0 0.0 0.00 0.00 0.00 92 1016.8
20260831065547 54 0 0.0 0.0 0.00 0.00 0.00 92 1016.8
20260831065046 54 0 0.0 0.0 0.00 0.00 0.00 92 1016.9
20260831064605 54 0 0.0 0.0 0.00 0.00 0.00 91 1016.9
20260831064046 54 0 0.0 0.0 0.00 0.00 0.00 91 1016.9
20260831063546 54 0 0.0 0.0 0.00 0.00 0.00 91 1017.1
20260831063110 54 0 0.0 0.0 0.00 0.00 0.00 91 1017.0
20260831062547 54 0 0.0 0.0 0.00 0.00 0.00 90 1017.1
20260831062046 54 0 0.0 0.0 0.00 0.00 0.00 90 1017.1
20260831061611 55 0 0.0 0.0 0.00 0.00 0.00 90 1017.1
20260831061047 55 0 0.0 0.0 0.00 0.00 0.00 90 1017.2
20260831060546 55 0 0.0 0.0 0.00 0.00 0.00 89 1017.2
20260831060112 55 0 0.0 0.0 0.00 0.00 0.00 89 1017.3
20260831055545 55 0 0.0 0.0 0.00 0.00 0.00 89 1017.3
20260831055048 55 0 0.0 0.0 0.00 0.00 0.00 88 1017.4
20260831054605 56 0 0.0 0.0 0.00 0.00 0.00 88 1017.4
20260831054046 56 0 0.0 0.0 0.00 0.00 0.00 88 1017.5
20260831053550 56 0 0.0 0.0 0.00 0.00 0.00 87 1017.5
20260831053103 56 0 0.0 0.0 0.00 0.00 0.00 87 1017.6
20260831052548 57 0 0.0 0.0 0.00 0.00 0.00 86 1017.6
20260831052044 57 0 0.0 0.0 0.00 0.00 0.00 85 1017.6
20260831051621 57 0 0.0 0.0 0.00 0.00 0.00 85 1017.6
20260831051046 58 0 0.0 0.0 0.00 0.00 0.00 83 1017.6
20260831050545 58 0 0.0 0.0 0.00 0.00 0.00 83 1017.8
20260831050107 59 0 0.0 0.0 0.00 0.00 0.00 82 1017.7
20260831045544 59 0 0.0 0.0 0.00 0.00 0.00 82 1017.7
20260831045046 59 0 0.0 1.0 0.00 0.00 0.00 82 1017.8
20260831044605 59 0 0.0 1.0 0.00 0.00 0.00 81 1017.7
20260831044045 60 0 0.0 1.0 0.00 0.00 0.00 80 1017.8
20260831043547 60 0 0.0 1.0 0.00 0.00 0.00 80 1017.8
20260831043102 60 0 0.0 1.0 0.00 0.00 0.00 80 1017.8
20260831042546 60 0 0.0 1.0 0.00 0.00 0.00 80 1017.7
20260831042046 60 0 0.0 1.0 0.00 0.00 0.00 80 1017.7
20260831041611 60 0 0.0 1.0 0.00 0.00 0.00 80 1017.8
20260831041047 60 0 0.0 1.0 0.00 0.00 0.00 80 1017.9
20260831040547 60 0 0.0 1.0 0.00 0.00 0.00 80 1017.9
20260831040107 59 0 0.0 0.0 0.00 0.00 0.00 79 1017.8
20260831035546 60 0 0.0 0.0 0.00 0.00 0.00 79 1017.9
20260831035044 60 0 0.0 0.0 0.00 0.00 0.00 78 1018.0
20260831034602 60 0 0.0 0.0 0.00 0.00 0.00 77 1017.9
20260831034049 60 0 0.0 0.0 0.00 0.00 0.00 76 1017.9
20260831033546 61 0 0.0 0.0 0.00 0.00 0.00 76 1017.9
20260831033103 61 0 0.0 0.0 0.00 0.00 0.00 75 1017.9
20260831032547 61 0 0.0 0.0 0.00 0.00 0.00 75 1017.9
20260831032048 61 0 0.0 0.0 0.00 0.00 0.00 74 1017.9
20260831031602 62 0 0.0 0.0 0.00 0.00 0.00 74 1017.9
20260831031046 62 0 0.0 0.0 0.00 0.00 0.00 73 1017.8
20260831030546 62 0 0.0 1.0 0.00 0.00 0.00 72 1017.8
20260831030104 62 0 0.0 1.0 0.00 0.00 0.00 72 1017.8
20260831025546 62 0 0.0 1.0 0.00 0.00 0.00 72 1017.8
20260831025046 63 0 0.0 0.0 0.00 0.00 0.00 69 1017.8
20260831024618 63 0 0.0 1.0 0.00 0.00 0.00 69 1017.8
20260831024046 63 0 0.0 3.0 0.00 0.00 0.00 69 1017.8
20260831023547 64 0 0.0 3.0 0.00 0.00 0.00 69 1017.8
20260831023102 64 0 0.0 2.0 0.00 0.00 0.00 68 1017.9
20260831022550 64 0 0.0 3.0 0.00 0.00 0.00 67 1018.0
20260831022046 65 0 0.0 3.0 0.00 0.00 0.00 67 1018.0
20260831021604 65 337 0.0 3.0 0.00 0.00 0.00 65 1017.9
20260831021047 65 0 0.0 3.0 0.00 0.00 0.00 68 1017.9
20260831020550 65 0 0.0 4.0 0.00 0.00 0.00 67 1017.9
20260831015545 66 315 1.0 5.0 0.00 0.00 0.00 64 1017.9
20260831015046 66 0 1.0 5.0 0.00 0.00 0.00 63 1017.9
20260831014601 66 9 2.0 5.0 0.00 0.00 0.00 62 1018.0
20260831014046 66 304 1.0 4.0 0.00 0.00 0.00 63 1018.0
20260831013547 66 15 1.0 5.0 0.00 0.00 0.00 63 1018.1
20260831013102 67 352 0.0 8.0 0.00 0.00 0.00 63 1018.1
20260831012547 67 340 4.0 8.0 0.00 0.00 0.00 61 1018.1
20260831012046 67 295 1.0 8.0 0.00 0.00 0.00 61 1018.2
20260831011604 67 314 3.0 8.0 0.00 0.00 0.00 60 1018.3
20260831011046 67 307 2.0 7.0 0.00 0.00 0.00 60 1018.4
20260831010546 67 289 2.0 6.0 0.00 0.00 0.00 59 1018.4
20260831010133 68 303 2.0 9.0 0.00 0.00 0.00 59 1018.4
20260831005548 68 342 1.0 9.0 0.00 0.00 0.00 60 1018.5
20260831005046 68 313 1.0 5.0 0.00 0.00 0.00 62 1018.5
20260831004602 68 336 0.0 5.0 0.00 0.00 0.00 61 1018.4
20260831004046 68 21 2.0 8.0 0.00 0.00 0.00 61 1018.5
20260831003545 68 24 2.0 8.0 0.00 0.00 0.00 61 1018.5
20260831003101 68 313 1.0 5.0 0.00 0.00 0.00 61 1018.6
20260831002546 69 67 1.0 6.0 0.00 0.00 0.00 62 1018.5
20260831002050 68 0 2.0 7.0 0.00 0.00 0.00 61 1018.6
20260831001610 69 342 2.0 7.0 0.00 0.00 0.00 60 1018.5
20260831001047 69 331 2.0 7.0 0.00 0.00 0.00 58 1018.5
20260831000546 69 32 2.0 7.0 0.00 0.00 0.00 58 1018.4
20260831000105 70 317 1.0 7.0 0.00 0.00 0.00 56 1018.4
20260830235546 70 317 1.0 7.0 0.00 0.00 0.00 56 1018.4
20260830235046 69 0 2.0 7.0 0.00 0.00 0.00 58 1018.4
20260830234607 70 9 2.0 7.0 0.00 0.00 0.00 57 1018.5
20260830234046 70 309 1.0 7.0 0.00 0.00 0.00 57 1018.6
20260830233545 70 301 1.0 5.0 0.00 0.00 0.00 55 1018.6
20260830233101 70 332 2.0 5.0 0.00 0.00 0.00 56 1018.7
20260830232547 70 352 1.0 6.0 0.00 0.00 0.00 56 1018.7
20260830232047 70 296 1.0 10.0 0.00 0.00 0.00 55 1018.8
20260830231605 70 0 3.0 10.0 0.00 0.00 0.00 57 1018.8
20260830231048 71 0 2.0 7.0 0.00 0.00 0.00 55 1018.8
20260830230546 70 352 2.0 7.0 0.00 0.00 0.00 56 1018.8
20260830230100 70 309 3.0 7.0 0.00 0.00 0.00 55 1018.9
20260830225544 70 352 3.0 7.0 0.00 0.00 0.00 55 1018.9
20260830225046 70 349 2.0 7.0 0.00 0.00 0.00 55 1019.1
20260830224610 70 298 1.0 6.0 0.00 0.00 0.00 55 1019.0
20260830224046 70 282 1.0 6.0 0.00 0.00 0.00 54 1019.1
20260830223544 70 319 2.0 6.0 0.00 0.00 0.00 54 1019.1
20260830223106 71 276 1.0 6.0 0.00 0.00 0.00 53 1019.2
20260830222546 71 298 2.0 6.0 0.00 0.00 0.00 53 1019.2
20260830222045 70 165 2.0 6.0 0.00 0.00 0.00 55 1019.3
20260830221602 69 321 1.0 5.0 0.00 0.00 0.00 56 1019.2
20260830221047 70 360 1.0 7.0 0.00 0.00 0.00 55 1019.3
20260830220545 69 311 1.0 7.0 0.00 0.00 0.00 55 1019.3
20260830220126 69 15 1.0 6.0 0.00 0.00 0.00 55 1019.3
20260830215547 69 24 1.0 5.0 0.00 0.00 0.00 57 1019.3
20260830215050 69 329 1.0 5.0 0.00 0.00 0.00 55 1019.2
20260830214606 70 0 1.0 5.0 0.00 0.00 0.00 56 1019.4
20260830214046 69 299 2.0 8.0 0.00 0.00 0.00 56 1019.4
20260830213543 69 331 1.0 8.0 0.00 0.00 0.00 59 1019.4
20260830213108 69 328 2.0 8.0 0.00 0.00 0.00 56 1019.5
20260830212546 69 5 2.0 8.0 0.00 0.00 0.00 57 1019.5
20260830212046 68 0 2.0 8.0 0.00 0.00 0.00 59 1019.5
20260830211605 67 310 1.0 6.0 0.00 0.00 0.00 59 1019.5
20260830211047 67 325 2.0 6.0 0.00 0.00 0.00 61 1019.4
20260830210548 68 327 1.0 6.0 0.00 0.00 0.00 56 1019.4
20260830210104 68 295 0.0 6.0 0.00 0.00 0.00 59 1019.4
20260830205547 68 295 2.0 6.0 0.00 0.00 0.00 57 1019.4
20260830205046 68 0 0.0 7.0 0.00 0.00 0.00 59 1019.5
20260830204604 67 288 2.0 7.0 0.00 0.00 0.00 60 1019.6
20260830204048 67 321 1.0 7.0 0.00 0.00 0.00 60 1019.6
20260830203546 67 268 2.0 7.0 0.00 0.00 0.00 58 1019.6
20260830203120 66 286 2.0 5.0 0.00 0.00 0.00 62 1019.6
20260830202547 66 232 1.0 5.0 0.00 0.00 0.00 61 1019.7
20260830202047 66 225 2.0 7.0 0.00 0.00 0.00 63 1019.7
20260830201605 66 210 3.0 8.0 0.00 0.00 0.00 63 1019.6
20260830201044 66 236 3.0 8.0 0.00 0.00 0.00 63 1019.7
20260830200546 66 234 1.0 4.0 0.00 0.00 0.00 63 1019.8
20260830200103 66 249 0.0 3.0 0.00 0.00 0.00 64 1019.9
20260830195544 65 273 0.0 5.0 0.00 0.00 0.00 63 1019.8
20260830195047 65 0 1.0 6.0 0.00 0.00 0.00 65 1019.8
20260830194606 65 213 1.0 6.0 0.00 0.00 0.00 65 1019.8
20260830194044 64 216 2.0 7.0 0.00 0.00 0.00 66 1019.9
20260830193546 64 0 2.0 7.0 0.00 0.00 0.00 67 1019.9
20260830193105 64 0 1.0 4.0 0.00 0.00 0.00 65 1020.0
20260830192546 65 323 0.0 4.0 0.00 0.00 0.00 64 1020.1
20260830192046 64 0 2.0 4.0 0.00 0.00 0.00 63 1020.1
20260830191603 64 290 0.0 4.0 0.00 0.00 0.00 67 1020.0
20260830191046 64 0 1.0 4.0 0.00 0.00 0.00 66 1020.1
20260830190548 64 290 1.0 4.0 0.00 0.00 0.00 65 1020.1
20260830190057 64 0 1.0 7.0 0.00 0.00 0.00 66 1020.1
20260830185547 65 285 0.0 7.0 0.00 0.00 0.00 67 1020.0
20260830185045 65 277 0.0 3.0 0.00 0.00 0.00 66 1020.0
20260830184600 64 0 0.0 2.0 0.00 0.00 0.00 70 1020.1
20260830184046 62 0 0.0 2.0 0.00 0.00 0.00 72 1020.2
20260830183549 62 0 0.0 2.0 0.00 0.00 0.00 75 1020.2
20260830183123 62 331 0.0 2.0 0.00 0.00 0.00 72 1020.2
20260830182545 62 0 0.0 3.0 0.00 0.00 0.00 73 1020.2
20260830182047 62 348 0.0 3.0 0.00 0.00 0.00 73 1020.2
20260830181623 62 0 0.0 3.0 0.00 0.00 0.00 72 1020.1
20260830181045 62 0 0.0 3.0 0.00 0.00 0.00 72 1020.2
20260830180546 62 0 1.0 3.0 0.00 0.00 0.00 72 1020.2
20260830180115 61 0 0.0 4.0 0.00 0.00 0.00 76 1020.2
20260830175546 61 0 0.0 4.0 0.00 0.00 0.00 75 1020.2
20260830175046 62 315 1.0 6.0 0.00 0.00 0.00 74 1020.2
20260830174604 62 360 1.0 6.0 0.00 0.00 0.00 74 1020.3
20260830174048 61 232 1.0 4.0 0.00 0.00 0.00 72 1020.3
20260830173544 60 0 0.0 3.0 0.00 0.00 0.00 75 1020.3
20260830173143 60 215 0.0 3.0 0.00 0.00 0.00 75 1020.2
20260830172547 60 214 0.0 4.0 0.00 0.00 0.00 75 1020.2
20260830172046 60 0 0.0 4.0 0.00 0.00 0.00 77 1020.2
20260830171607 60 214 0.0 4.0 0.00 0.00 0.00 78 1020.3
20260830171047 60 214 0.0 4.0 0.00 0.00 0.00 78 1020.2
20260830170545 60 199 0.0 2.0 0.00 0.00 0.00 78 1020.2
20260830170103 60 0 0.0 2.0 0.00 0.00 0.00 78 1020.1
20260830165548 60 0 0.0 2.0 0.00 0.01 0.00 79 1020.2
20260830165046 60 199 0.0 4.0 0.00 0.01 0.00 79 1020.2
20260830164610 60 0 0.0 4.0 0.00 0.01 0.00 80 1020.3
20260830164047 59 199 0.0 3.0 0.00 0.01 0.00 81 1020.2
20260830163546 59 0 0.0 2.0 0.00 0.01 0.00 80 1020.2
20260830163108 60 0 0.0 3.0 0.00 0.01 0.00 81 1020.1
20260830162544 60 0 0.0 3.0 0.00 0.01 0.00 80 1020.2
20260830162045 59 195 0.0 4.0 0.00 0.01 0.00 81 1020.1
20260830161635 58 0 1.0 4.0 0.00 0.01 0.00 81 1020.1
20260830161046 59 0 0.0 4.0 0.00 0.01 0.00 82 1020.1
20260830160545 58 0 1.0 4.0 0.00 0.01 0.00 83 1020.1
20260830160108 57 140 1.0 4.0 0.00 0.01 0.00 86 1020.1
20260830155546 56 140 0.0 3.0 0.00 0.02 0.00 87 1020.0
20260830155046 56 0 0.0 4.0 0.00 0.02 0.00 87 1020.1
20260830154609 56 140 0.0 4.0 0.00 0.02 0.00 89 1020.1
20260830154050 56 0 1.0 4.0 0.00 0.02 0.00 89 1020.0
20260830153549 55 0 1.0 3.0 0.00 0.02 0.00 91 1020.0
20260830153108 55 0 0.0 2.0 0.00 0.02 0.00 91 1020.0
20260830152545 55 140 0.0 2.0 0.00 0.02 0.00 92 1019.9
20260830152046 55 0 0.0 4.0 0.00 0.02 0.00 93 1020.0
20260830151604 54 140 1.0 4.0 0.00 0.02 0.00 93 1020.0
20260830151047 54 5 0.0 3.0 0.00 0.02 0.00 94 1020.0
20260830150548 54 0 0.0 0.0 0.00 0.02 0.00 94 1020.1
20260830150104 53 0 0.0 1.0 0.00 0.02 0.00 94 1020.0
20260830145546 53 0 0.0 1.0 0.00 0.24 0.00 94 1020.0
20260830145046 53 0 0.0 0.0 0.00 0.24 0.00 95 1019.9
20260830144607 53 0 0.0 0.0 0.00 0.24 0.00 95 1019.8
20260830144048 53 0 0.0 0.0 0.00 0.24 0.00 95 1019.9
20260830143546 53 0 0.0 0.0 0.00 0.24 0.00 95 1019.9
20260830143107 53 0 0.0 0.0 0.00 0.24 0.00 95 1019.8
20260830142552 53 0 0.0 0.0 0.00 0.24 0.00 95 1019.8
20260830142047 53 0 0.0 0.0 0.00 0.24 0.00 95 1019.7
20260830141603 53 0 0.0 0.0 0.00 0.24 0.00 95 1019.8
20260830141046 53 0 0.0 1.0 0.00 0.24 0.00 95 1019.8
20260830140546 53 0 0.0 1.0 0.00 0.24 0.00 95 1019.7
20260830140111 53 0 0.0 0.0 0.00 0.24 0.00 95 1019.7
20260830135545 53 0 0.0 0.0 0.00 0.50 0.00 95 1019.7
20260830135045 53 0 0.0 0.0 0.00 0.50 0.00 95 1019.7
20260830134605 53 0 0.0 0.0 0.00 0.50 0.00 95 1019.7
20260830134046 53 0 0.0 0.0 0.00 0.50 0.00 95 1019.7
20260830133546 53 0 0.0 0.0 0.00 0.50 0.00 95 1019.7
20260830133104 53 0 0.0 0.0 0.00 0.50 0.00 95 1019.6
20260830132544 53 0 0.0 0.0 0.00 0.50 0.00 94 1019.6
20260830132046 53 0 0.0 0.0 0.00 0.50 0.00 95 1019.6
20260830131617 53 0 0.0 0.0 0.00 0.50 0.00 95 1019.6
20260830131046 53 0 0.0 0.0 0.00 0.50 0.00 95 1019.7
20260830130549 53 0 0.0 0.0 0.00 0.50 0.00 95 1019.7
20260830130110 53 0 0.0 0.0 0.00 0.50 0.00 95 1019.6
20260830125546 53 0 0.0 0.0 0.00 0.62 0.00 95 1019.7
20260830125045 52 0 0.0 0.0 0.00 0.62 0.00 95 1019.7
20260830124602 52 0 0.0 0.0 0.00 0.62 0.00 95 1019.7
20260830124046 52 0 0.0 0.0 0.00 0.62 0.00 95 1019.6
20260830123547 52 0 0.0 0.0 0.00 0.62 0.00 95 1019.7
20260830123105 52 0 0.0 0.0 0.00 0.62 0.00 95 1019.7
20260830122547 52 0 0.0 0.0 0.00 0.62 0.00 94 1019.7
20260830122050 52 0 0.0 0.0 0.00 0.62 0.00 94 1019.6
20260830121602 52 0 0.0 0.0 0.00 0.62 0.00 94 1019.6
20260830121045 52 0 0.0 0.0 0.00 0.62 0.00 94 1019.6
20260830120547 52 0 0.0 0.0 0.00 0.62 0.00 94 1019.7
20260830120104 52 0 0.0 0.0 0.00 0.62 0.00 94 1019.7
20260830115547 52 0 0.0 0.0 0.00 0.62 0.00 94 1019.8
20260830115046 52 0 0.0 0.0 0.00 0.62 0.00 94 1019.8
20260830114605 52 0 0.0 0.0 0.00 0.62 0.00 94 1019.8
20260830114047 52 0 0.0 0.0 0.00 0.62 0.00 94 1019.8
20260830113548 52 0 0.0 0.0 0.00 0.62 0.00 94 1019.8
20260830113106 52 0 0.0 0.0 0.00 0.62 0.00 94 1019.7
20260830112546 52 0 0.0 0.0 0.00 0.62 0.00 94 1019.7
20260830112044 52 0 0.0 0.0 0.00 0.62 0.00 94 1019.7
20260830111600 52 0 0.0 0.0 0.00 0.62 0.00 94 1019.7
20260830111046 52 0 0.0 0.0 0.00 0.62 0.00 94 1019.7
20260830110546 52 0 0.0 0.0 0.00 0.62 0.00 94 1019.6
20260830110138 52 0 0.0 0.0 0.00 0.62 0.00 94 1019.6
20260830105547 52 0 0.0 0.0 0.00 0.63 0.00 94 1019.5
20260830105046 52 0 0.0 0.0 0.00 0.63 0.00 94 1019.5
20260830104608 52 0 0.0 0.0 0.00 0.63 0.00 94 1019.4
20260830104049 52 0 0.0 0.0 0.00 0.63 0.00 94 1019.4
20260830103546 52 0 0.0 0.0 0.00 0.63 0.00 94 1019.4
20260830103106 52 0 0.0 0.0 0.00 0.63 0.00 94 1019.5
20260830102546 52 0 0.0 0.0 0.00 0.63 0.00 94 1019.4
20260830102049 52 0 0.0 0.0 0.00 0.63 0.00 94 1019.5
20260830101605 52 0 0.0 0.0 0.00 0.63 0.00 94 1019.5
20260830101045 52 0 0.0 0.0 0.00 0.63 0.00 94 1019.4
20260830100546 52 0 0.0 0.0 0.00 0.63 0.00 94 1019.5
20260830100104 52 0 0.0 0.0 0.00 0.63 0.00 94 1019.5
20260830095546 52 0 0.0 0.0 0.00 0.64 0.00 94 1019.4
20260830095050 52 0 0.0 0.0 0.00 0.64 0.00 94 1019.5
20260830094609 52 0 0.0 0.0 0.00 0.64 0.00 94 1019.4
20260830094045 52 0 0.0 0.0 0.00 0.64 0.00 94 1019.5
20260830093545 52 0 0.0 0.0 0.00 0.64 0.00 94 1019.5
20260830093137 52 0 0.0 0.0 0.00 0.64 0.00 94 1019.5
20260830092549 52 0 0.0 0.0 0.00 0.64 0.00 94 1019.5
20260830092046 52 0 0.0 0.0 0.00 0.64 0.00 94 1019.5
20260830091602 52 0 0.0 0.0 0.00 0.64 0.00 94 1019.5
20260830091047 52 0 0.0 0.0 0.00 0.64 0.00 94 1019.6
20260830090549 52 0 0.0 0.0 0.00 0.64 0.00 94 1019.6
20260830090105 52 0 0.0 0.0 0.00 0.64 0.00 93 1019.6
20260830085548 51 0 0.0 0.0 0.00 0.66 0.00 93 1019.6
20260830085046 51 0 0.0 0.0 0.00 0.66 0.00 93 1019.6
20260830084605 51 0 0.0 0.0 0.00 0.66 0.00 93 1019.6
20260830084048 51 0 0.0 0.0 0.00 0.66 0.00 93 1019.5
20260830083547 51 0 0.0 0.0 0.00 0.66 0.00 93 1019.5
20260830083101 51 0 0.0 0.0 0.00 0.66 0.00 93 1019.5
20260830082545 51 0 0.0 0.0 0.00 0.66 0.00 93 1019.4
20260830082045 51 0 0.0 1.0 0.00 0.66 0.00 92 1019.4
20260830081557 51 0 0.0 1.0 0.00 0.66 0.00 92 1019.4
20260830081046 51 0 0.0 0.0 0.00 0.66 0.00 93 1019.3
20260830080546 51 0 0.0 0.0 0.00 0.66 0.00 92 1019.3
20260830075546 51 0 0.0 0.0 0.00 0.66 0.00 91 1019.3
20260830075045 51 0 0.0 0.0 0.00 0.66 0.00 91 1019.3
20260830074658 52 0 0.0 0.0 0.00 0.66 0.00 90 1019.2
20260830074046 52 0 0.0 0.0 0.00 0.66 0.00 90 1019.3
20260830073546 52 0 0.0 0.0 0.00 0.66 0.00 90 1019.2
20260830073110 52 0 0.0 0.0 0.00 0.66 0.00 90 1019.3
20260830072546 52 0 0.0 0.0 0.00 0.66 0.00 89 1019.3
20260830072046 53 0 0.0 0.0 0.00 0.66 0.00 89 1019.3
20260830071619 53 0 0.0 0.0 0.00 0.66 0.00 89 1019.2
20260830071046 53 0 0.0 0.0 0.00 0.66 0.00 88 1019.2